| time (UTC) | temp C | wind direction | speed KPH | gust KPH | rain 1hr cm | rain 24hr cm | rain mn cm | humidity % | barometer mb |
| 20260510011530 | 21 | 0 | 0.0 | 3.2 | 0.00 | 0.10 | 0.10 | 57 | 1010.0 |
| 20260510010031 | 21 | 183 | 3.2 | 4.8 | 0.00 | 0.10 | 0.10 | 55 | 1009.7 |
| 20260510004529 | 22 | 162 | 3.2 | 8.0 | 0.00 | 0.10 | 0.10 | 52 | 1009.4 |
| 20260510003040 | 23 | 185 | 4.8 | 11.3 | 0.00 | 0.10 | 0.10 | 58 | 1009.1 |
| 20260510001539 | 24 | 173 | 8.0 | 14.5 | 0.00 | 0.10 | 0.10 | 44 | 1009.1 |
| 20260510000031 | 24 | 127 | 9.7 | 22.5 | 0.00 | 0.10 | 0.10 | 43 | 1009.0 |
| 20260509234537 | 25 | 190 | 11.3 | 20.9 | 0.00 | 0.10 | 0.10 | 42 | 1008.9 |
| 20260509233030 | 25 | 140 | 9.7 | 27.4 | 0.00 | 0.10 | 0.10 | 41 | 1009.0 |
| 20260509231530 | 25 | 159 | 16.1 | 29.0 | 0.00 | 0.10 | 0.10 | 53 | 1008.9 |
| 20260509230028 | 25 | 165 | 16.1 | 22.5 | 0.00 | 0.10 | 0.10 | 53 | 1008.8 |
| 20260509224531 | 25 | 166 | 12.9 | 27.4 | 0.00 | 0.10 | 0.10 | 51 | 1008.7 |
| 20260509223030 | 25 | 184 | 11.3 | 22.5 | 0.00 | 0.10 | 0.10 | 39 | 1008.6 |
| 20260509221530 | 25 | 169 | 11.3 | 25.7 | 0.00 | 0.10 | 0.10 | 53 | 1008.7 |
| 20260509220030 | 25 | 95 | 11.3 | 22.5 | 0.00 | 0.10 | 0.10 | 51 | 1008.6 |
| 20260509214537 | 25 | 145 | 14.5 | 25.7 | 0.00 | 0.10 | 0.10 | 52 | 1008.7 |
| 20260509213037 | 25 | 114 | 6.4 | 27.4 | 0.00 | 0.10 | 0.10 | 50 | 1008.7 |
| 20260509211530 | 25 | 121 | 11.3 | 17.7 | 0.00 | 0.10 | 0.10 | 36 | 1008.7 |
| 20260509210034 | 25 | 157 | 14.5 | 27.4 | 0.00 | 0.10 | 0.10 | 52 | 1008.9 |
| 20260509204537 | 25 | 188 | 9.7 | 25.7 | 0.00 | 0.10 | 0.10 | 36 | 1009.1 |
| 20260509203032 | 25 | 173 | 9.7 | 24.1 | 0.00 | 0.10 | 0.10 | 38 | 1009.2 |
| 20260509201531 | 25 | 169 | 14.5 | 25.7 | 0.00 | 0.10 | 0.10 | 50 | 1009.5 |
| 20260509200037 | 24 | 131 | 11.3 | 19.3 | 0.00 | 0.10 | 0.10 | 55 | 1009.6 |
| 20260509194539 | 23 | 151 | 11.3 | 22.5 | 0.00 | 0.10 | 0.10 | 57 | 1009.7 |
| 20260509193038 | 23 | 233 | 8.0 | 16.1 | 0.00 | 0.10 | 0.10 | 62 | 1009.6 |
| 20260509191529 | 23 | 163 | 8.0 | 16.1 | 0.00 | 0.10 | 0.10 | 61 | 1009.8 |
| 20260509190028 | 23 | 149 | 9.7 | 20.9 | 0.00 | 0.10 | 0.10 | 66 | 1009.8 |
| 20260509184535 | 22 | 201 | 8.0 | 19.3 | 0.00 | 0.10 | 0.10 | 65 | 1009.9 |
| 20260509183032 | 22 | 162 | 12.9 | 20.9 | 0.00 | 0.10 | 0.10 | 64 | 1010.0 |
| 20260509181532 | 22 | 138 | 6.4 | 14.5 | 0.00 | 0.10 | 0.10 | 54 | 1010.0 |
| 20260509180029 | 22 | 204 | 8.0 | 16.1 | 0.00 | 0.10 | 0.10 | 56 | 1010.1 |
| 20260509174528 | 21 | 188 | 4.8 | 16.1 | 0.00 | 0.10 | 0.10 | 56 | 1010.2 |
| 20260509173030 | 21 | 173 | 6.4 | 16.1 | 0.00 | 0.10 | 0.10 | 58 | 1010.1 |
| 20260509171536 | 21 | 133 | 6.4 | 19.3 | 0.00 | 0.10 | 0.10 | 69 | 1010.3 |
| 20260509170030 | 21 | 182 | 4.8 | 19.3 | 0.00 | 0.10 | 0.10 | 70 | 1010.5 |
| 20260509164529 | 21 | 180 | 8.0 | 17.7 | 0.00 | 0.10 | 0.10 | 71 | 1010.6 |
| 20260509163030 | 20 | 0 | 1.6 | 17.7 | 0.00 | 0.10 | 0.10 | 74 | 1010.6 |
| 20260509161532 | 20 | 178 | 6.4 | 12.9 | 0.00 | 0.10 | 0.10 | 74 | 1010.4 |
| 20260509160030 | 19 | 257 | 4.8 | 14.5 | 0.00 | 0.10 | 0.10 | 63 | 1010.4 |
| 20260509154534 | 19 | 171 | 4.8 | 11.3 | 0.00 | 0.10 | 0.10 | 77 | 1010.3 |
| 20260509153033 | 19 | 207 | 8.0 | 16.1 | 0.00 | 0.10 | 0.10 | 64 | 1010.2 |
| 20260509151533 | 18 | 202 | 6.4 | 14.5 | 0.00 | 0.10 | 0.10 | 79 | 1010.0 |
| 20260509150028 | 18 | 159 | 8.0 | 14.5 | 0.00 | 0.10 | 0.10 | 65 | 1009.9 |
| 20260509144530 | 18 | 169 | 6.4 | 12.9 | 0.00 | 0.10 | 0.10 | 68 | 1009.7 |
| 20260509143032 | 18 | 135 | 3.2 | 11.3 | 0.00 | 0.10 | 0.10 | 70 | 1009.7 |
| 20260509141532 | 17 | 111 | 1.6 | 11.3 | 0.00 | 0.10 | 0.10 | 84 | 1009.5 |
| 20260509140049 | 17 | 102 | 1.6 | 6.4 | 0.00 | 0.10 | 0.10 | 73 | 1009.6 |
| 20260509134530 | 17 | 93 | 4.8 | 11.3 | 0.00 | 0.10 | 0.10 | 87 | 1009.5 |
| 20260509133030 | 17 | 48 | 0.0 | 6.4 | 0.00 | 0.10 | 0.10 | 79 | 1009.4 |
| 20260509131540 | 16 | 81 | 3.2 | 4.8 | 0.00 | 0.10 | 0.10 | 80 | 1009.4 |
| 20260509130034 | 16 | 137 | 1.6 | 6.4 | 0.00 | 0.10 | 0.10 | 82 | 1009.5 |
| 20260509124535 | 15 | 200 | 1.6 | 4.8 | 0.00 | 0.10 | 0.10 | 82 | 1009.4 |
| 20260509123029 | 16 | 212 | 0.0 | 3.2 | 0.00 | 0.10 | 0.10 | 84 | 1009.3 |
| 20260509121546 | 15 | 0 | 0.0 | 1.6 | 0.00 | 0.10 | 0.10 | 85 | 1009.2 |
| 20260509120034 | 14 | 17 | 0.0 | 4.8 | 0.00 | 0.10 | 0.10 | 86 | 1008.9 |
| 20260509114533 | 13 | 238 | 3.2 | 14.5 | 0.00 | 0.10 | 0.10 | 86 | 1008.7 |
| 20260509113030 | 13 | 105 | 6.4 | 11.3 | 0.00 | 0.10 | 0.10 | 85 | 1008.5 |
| 20260509111530 | 13 | 221 | 0.0 | 3.2 | 0.00 | 0.10 | 0.10 | 85 | 1008.7 |
| 20260509110031 | 13 | 192 | 1.6 | 3.2 | 0.00 | 0.10 | 0.10 | 84 | 1008.6 |
| 20260509104528 | 13 | 0 | 0.0 | 3.2 | 0.00 | 0.10 | 0.10 | 84 | 1008.1 |
| 20260509103028 | 13 | 187 | 0.0 | 1.6 | 0.00 | 0.10 | 0.10 | 83 | 1008.0 |
| 20260509101531 | 13 | 0 | 0.0 | 1.6 | 0.03 | 0.10 | 0.10 | 83 | 1007.5 |
| 20260509100032 | 13 | 62 | 0.0 | 3.2 | 0.05 | 0.10 | 0.10 | 82 | 1007.4 |
| 20260509094529 | 13 | 89 | 1.6 | 3.2 | 0.08 | 0.10 | 0.10 | 82 | 1007.9 |
| 20260509093030 | 13 | 10 | 1.6 | 4.8 | 0.08 | 0.08 | 0.08 | 82 | 1008.1 |
| 20260509091528 | 14 | 257 | 3.2 | 11.3 | 0.08 | 0.08 | 0.08 | 81 | 1008.3 |
| 20260509090028 | 14 | 360 | 1.6 | 8.0 | 0.05 | 0.05 | 0.05 | 79 | 1007.6 |
| 20260509084537 | 14 | 0 | 0.0 | 8.0 | 0.03 | 0.03 | 0.03 | 78 | 1007.6 |
| 20260509083043 | 15 | 17 | 3.2 | 9.7 | 0.00 | 0.00 | 0.00 | 77 | 1007.9 |
| 20260509081530 | 15 | 316 | 9.7 | 17.7 | 0.00 | 0.00 | 0.00 | 76 | 1008.0 |
| 20260509080032 | 15 | 334 | 6.4 | 14.5 | 0.00 | 0.00 | 0.00 | 76 | 1008.5 |
| 20260509074532 | 15 | 336 | 8.0 | 24.1 | 0.00 | 0.00 | 0.00 | 77 | 1008.8 |
| 20260509073030 | 15 | 280 | 4.8 | 14.5 | 0.00 | 0.00 | 0.00 | 76 | 1008.9 |
| 20260509071531 | 15 | 272 | 11.3 | 19.3 | 0.00 | 0.00 | 0.00 | 75 | 1008.7 |
| 20260509070029 | 16 | 316 | 11.3 | 19.3 | 0.00 | 0.00 | 0.00 | 80 | 1008.6 |
| 20260509064532 | 16 | 196 | 3.2 | 6.4 | 0.00 | 0.00 | 0.00 | 59 | 1008.6 |
| 20260509063034 | 16 | 255 | 4.8 | 9.7 | 0.00 | 0.00 | 0.00 | 72 | 1008.7 |
| 20260509061539 | 16 | 180 | 3.2 | 8.0 | 0.00 | 0.00 | 0.00 | 62 | 1008.5 |
| 20260509060028 | 16 | 131 | 4.8 | 8.0 | 0.00 | 0.00 | 0.00 | 60 | 1008.5 |
| 20260509054529 | 16 | 174 | 3.2 | 6.4 | 0.00 | 0.00 | 0.00 | 60 | 1008.3 |
| 20260509053039 | 16 | 185 | 3.2 | 6.4 | 0.00 | 0.00 | 0.00 | 59 | 1008.4 |
| 20260509051530 | 16 | 153 | 3.2 | 8.0 | 0.00 | 0.00 | 0.00 | 59 | 1008.5 |
| 20260509050031 | 16 | 188 | 4.8 | 6.4 | 0.00 | 0.00 | 0.00 | 71 | 1008.5 |
| 20260509044530 | 16 | 160 | 4.8 | 8.0 | 0.00 | 0.00 | 0.00 | 72 | 1008.5 |
| 20260509043029 | 16 | 189 | 6.4 | 11.3 | 0.00 | 0.00 | 0.00 | 59 | 1008.6 |
| 20260509041539 | 16 | 175 | 6.4 | 12.9 | 0.00 | 0.00 | 0.00 | 58 | 1008.7 |
| 20260509040032 | 17 | 159 | 8.0 | 11.3 | 0.00 | 0.00 | 0.00 | 56 | 1008.6 |
| 20260509034529 | 17 | 165 | 6.4 | 9.7 | 0.00 | 0.00 | 0.00 | 69 | 1008.7 |
| 20260509033031 | 17 | 156 | 4.8 | 9.7 | 0.00 | 0.00 | 0.00 | 68 | 1008.9 |
| 20260509031533 | 17 | 98 | 9.7 | 16.1 | 0.00 | 0.00 | 0.00 | 53 | 1008.9 |
| 20260509030032 | 17 | 105 | 8.0 | 11.3 | 0.00 | 0.00 | 0.00 | 56 | 1009.0 |
| 20260509024529 | 17 | 164 | 4.8 | 9.7 | 0.00 | 0.00 | 0.00 | 69 | 1009.1 |
| 20260509023029 | 17 | 106 | 8.0 | 12.9 | 0.00 | 0.00 | 0.00 | 55 | 1009.1 |
| 20260509021530 | 17 | 175 | 6.4 | 8.0 | 0.00 | 0.00 | 0.00 | 55 | 1009.2 |
| 20260509020033 | 17 | 158 | 3.2 | 8.0 | 0.00 | 0.00 | 0.00 | 55 | 1009.1 |
| 20260509014530 | 18 | 164 | 0.0 | 3.2 | 0.00 | 0.00 | 0.00 | 55 | 1009.1 |
| 20260509013036 | 18 | 110 | 3.2 | 9.7 | 0.00 | 0.00 | 0.00 | 51 | 1009.0 |